When you browse on this site, cookies collect data to enhance your experience and personalize the content and advertising you see.
Visit our Privacy Policy to learn more. By continuing to use the site, you agree to this use of cookies and data.
  • In Austria
  • List of Countries
  • For 7 days
  • Water Temperature
  • Weather Map
  • News
  • Weather Widgets
  • user-avatar
    Login

    Hourly Weather Hlushkiv

    Today, 17 September, Tuesday

    Time Temperature Precipitation Wind Pressure Humidity
    00:00 +14°C° 3 mm 3 mps 733 mmHg 99%
    01:00 +13°C° 3 mm 5 mps 734 mmHg 98%
    02:00 +12°C° 1.6 mm 3 mps 734 mmHg 98%
    03:00 +12°C° 0.5 mm 3 mps 734 mmHg 99%
    04:00 +12°C° 0.3 mm 3 mps 733 mmHg 100%
    05:00 +13°C° 0.1 mm 2 mps 733 mmHg 100%
    06:00 +13°C° 0.2 mm 2 mps 733 mmHg 100%
    07:00 +13°C° 0.1 mm 2 mps 733 mmHg 98%
    08:00 +14°C° 0 mm 2 mps 733 mmHg 95%
    09:00 +14°C° 0 mm 2 mps 733 mmHg 91%
    10:00 +14°C° 0 mm 2 mps 733 mmHg 90%
    11:00 +14°C° 0 mm 2 mps 733 mmHg 91%
    12:00 +13°C° 0.2 mm 3 mps 733 mmHg 88%
    13:00 +13°C° 0 mm 3 mps 733 mmHg 91%
    14:00 +14°C° 0 mm 3 mps 733 mmHg 88%
    15:00 +14°C° 0 mm 3 mps 732 mmHg 87%
    16:00 +16°C° 0 mm 3 mps 732 mmHg 85%
    17:00 +16°C° 0 mm 3 mps 731 mmHg 84%
    18:00 +15°C° 0 mm 2 mps 731 mmHg 89%
    19:00 +14°C° 0 mm 2 mps 731 mmHg 97%
    20:00 +13°C° 0 mm 2 mps 730 mmHg 98%
    21:00 +13°C° 0 mm 2 mps 730 mmHg 99%
    22:00 +12°C° 0 mm 2 mps 730 mmHg 100%
    23:00 +12°C° 0 mm 2 mps 729 mmHg 98%

    Tomorrow, 18 September, Wednesday

    Time Temperature Precipitation Wind Pressure Humidity
    00:00 +12°C° 0 mm 2 mps 729 mmHg 99%
    01:00 +11°C° 0.1 mm 3 mps 729 mmHg 98%
    02:00 +11°C° 0.1 mm 4 mps 729 mmHg 95%
    03:00 +11°C° 0 mm 4 mps 729 mmHg 95%
    04:00 +10°C° 0 mm 7 mps 729 mmHg 90%
    05:00 +9°C° 0 mm 7 mps 730 mmHg 88%
    06:00 +8°C° 0 mm 7 mps 730 mmHg 87%
    07:00 +6°C° 0 mm 7 mps 731 mmHg 86%
    08:00 +7°C° 0 mm 8 mps 732 mmHg 83%
    09:00 +7°C° 0 mm 9 mps 732 mmHg 81%
    10:00 +8°C° 0 mm 9 mps 733 mmHg 82%
    11:00 +8°C° 0 mm 9 mps 733 mmHg 82%
    12:00 +10°C° 0 mm 9 mps 734 mmHg 79%
    13:00 +11°C° 0 mm 9 mps 734 mmHg 76%
    14:00 +12°C° 0 mm 9 mps 734 mmHg 74%
    15:00 +12°C° 0 mm 9 mps 734 mmHg 73%
    16:00 +12°C° 0 mm 9 mps 734 mmHg 73%
    17:00 +12°C° 0 mm 8 mps 735 mmHg 73%
    18:00 +11°C° 0 mm 7 mps 735 mmHg 76%
    19:00 +10°C° 0 mm 6 mps 736 mmHg 80%
    20:00 +9°C° 0 mm 5 mps 736 mmHg 83%
    21:00 +9°C° 0 mm 5 mps 737 mmHg 85%
    22:00 +8°C° 0 mm 5 mps 737 mmHg 86%
    23:00 +8°C° 0 mm 4 mps 738 mmHg 88%

    Day after tomorrow, 19 September, Thursday

    Time Temperature Precipitation Wind Pressure Humidity
    00:00 +7°C° 0 mm 4 mps 738 mmHg 90%
    01:00 +7°C° 0 mm 4 mps 738 mmHg 90%
    02:00 +6°C° 0 mm 4 mps 738 mmHg 91%
    03:00 +6°C° 0 mm 4 mps 738 mmHg 92%
    04:00 +6°C° 0 mm 4 mps 738 mmHg 93%
    05:00 +5°C° 0 mm 4 mps 738 mmHg 94%
    06:00 +5°C° 0 mm 3 mps 738 mmHg 95%
    07:00 +5°C° 0 mm 3 mps 738 mmHg 94%
    08:00 +7°C° 0 mm 4 mps 739 mmHg 89%
    09:00 +9°C° 0 mm 5 mps 739 mmHg 87%
    10:00 +10°C° 0 mm 5 mps 740 mmHg 85%
    11:00 +12°C° 0 mm 4 mps 740 mmHg 83%
    12:00 +12°C° 0 mm 4 mps 740 mmHg 78%
    13:00 +13°C° 0 mm 4 mps 740 mmHg 77%
    14:00 +13°C° 0 mm 4 mps 739 mmHg 76%
    15:00 +13°C° 0 mm 4 mps 739 mmHg 73%
    16:00 +11°C° 0.1 mm 3 mps 739 mmHg 85%
    17:00 +10°C° 0.1 mm 3 mps 739 mmHg 89%
    18:00 +10°C° 0 mm 3 mps 739 mmHg 92%
    19:00 +10°C° 0.3 mm 2 mps 739 mmHg 95%
    20:00 +9°C° 0 mm 3 mps 739 mmHg 97%
    21:00 +9°C° 0 mm 2 mps 739 mmHg 98%
    22:00 +8°C° 0 mm 2 mps 739 mmHg 98%
    23:00 +8°C° 0 mm 3 mps 740 mmHg 99%

    20 September, Friday

    Time Temperature Precipitation Wind Pressure Humidity
    00:00 +7°C° 0 mm 3 mps 739 mmHg 99%
    01:00 +6°C° 0 mm 4 mps 739 mmHg 98%
    02:00 +7°C° 0 mm 4 mps 739 mmHg 97%
    03:00 +6°C° 0 mm 5 mps 739 mmHg 98%
    04:00 +6°C° 0 mm 4 mps 739 mmHg 98%
    05:00 +6°C° 0 mm 4 mps 739 mmHg 97%
    06:00 +6°C° 0 mm 4 mps 739 mmHg 97%
    07:00 +6°C° 0 mm 4 mps 739 mmHg 97%
    08:00 +6°C° 0.2 mm 4 mps 739 mmHg 96%
    09:00 +7°C° 0 mm 6 mps 740 mmHg 88%
    10:00 +7°C° 0 mm 6 mps 740 mmHg 91%
    11:00 +7°C° 0 mm 6 mps 740 mmHg 91%
    12:00 +8°C° 0 mm 7 mps 740 mmHg 87%
    13:00 +9°C° 0 mm 7 mps 740 mmHg 82%
    14:00 +9°C° 0 mm 7 mps 739 mmHg 74%

    21 September, Saturday

    Time Temperature Precipitation Wind Pressure Humidity

    22 September, Sunday

    Time Temperature Precipitation Wind Pressure Humidity
    Show more